Regional Weather Roundup
Issued by NWS Jackson, KY

Home | Current Version | Previous Version | Graphics & Text | Print | Product List | Glossary On
Versions: 1 2 3 4 5 6 7 8 9 10 11 12 13 14 15 16 17 18 19 20 21 22 23 24 25 26 27 28 29 30 31 32 33 34 35 36 37 38 39 40 41 42 43 44 45 46 47 48 49 50
000
ASUS43 KJKL 220705
RWRJKL

EAST KENTUCKY HOURLY WEATHER ROUNDUP
NATIONAL WEATHER SERVICE JACKSON KY
300 AM EDT FRI AUG 22 2014

NOTE: "FAIR" INDICATES FEW OR NO CLOUDS BELOW 12,000 FEET WITH
NO SIGNIFICANT WEATHER AND/OR OBSTRUCTIONS TO VISIBILITY.

* THESE REPORTS ARE NOT UNDER NWS QUALITY CONTROL AND MAY NOT
  REPORT WEATHER SUCH AS PRECIPITATION AND FOG.

KYZ079-080-083-085-087-088-110-112-115-119-120-220800
...EASTERN KENTUCKY...

CITY           SKY/WX    TMP DP  RH WIND       PRES   REMARKS
JACKSON        MOCLDY    71  69  93 VRB3      30.07F
LONDON         MOCLDY    75  69  81 CALM      30.09F
SOMERSET*      CLOUDY    72  72 100 CALM      30.08F
MONTICELLO*    MOCLDY    70  69  96 CALM      30.09F
WILLIAMSBURG*  CLEAR     68  68 100 CALM      30.09F
MIDDLESBORO*   PTCLDY    69  69  99 CALM      30.11F
HARLAN APT*    CLOUDY    68  68 100 MISG      30.12F VSB<1/4
BLACK MTN*       N/A     66  66 100 S7          N/A
PIKEVILLE APT* CLEAR     70  68  94 S3        30.08F
BIG SANDY*     PTSUNNY   70  69  96 S3        30.06F
MOREHEAD APT*  CLOUDY    75  72  88 SW8       30.06F
$$

KYZ035-036-041-042-044-050-067-078-099-220800
...CENTRAL KENTUCKY...

CITY           SKY/WX    TMP DP  RH WIND       PRES   REMARKS
MT STERLING*   CLOUDY    75  72  88 W8        30.06S
FLEMING/MASON* HVY RAIN  70  69  96 NW3       30.08R
DANVILLE*      MOCLDY    77  70  78 SW5       30.07F
RICHMOND*      MOCLDY    75  70  83 SW7       30.05F
LEXINGTON      CLOUDY    77  71  82 SW6       30.05F
FRANKFORT      CLOUDY    75  72  90 SW7       30.02F
$$

KYZ091>093-OHZ055-061-077-WVZ005-015-034-035-042-220800
...SOUTHERN OHIO/WEST VIRGINIA...

CITY           SKY/WX    TMP DP  RH WIND       PRES   REMARKS
COVINGTON      CLOUDY    71  69  93 CALM      30.01F
COLUMBUS       CLOUDY    73  68  83 W8        29.98F
DAYTON         LGT RAIN  72  68  87 W15       30.00F
WILMINGTON     CLOUDY    69  67  93 SW8       29.99F
HUNTINGTON     CLOUDY    70  69  97 CALM      30.02F
CHARLESTON     MOCLDY    69  69 100 CALM      30.02F FOG
PINEVILLE*     FOG       68  68 100 MISG      30.16S VSB 1/4
BECKLEY        PTCLDY    67  64  90 SW7       30.13F
BLUEFIELD      PTCLDY    68  64  87 W7        30.16F
$$

VAZ002-007-008-TNZ017-027-036-066-071-220800
...SOUTHWEST VIRGINIA/EAST TENNESSEE...

CITY           SKY/WX    TMP DP  RH WIND       PRES   REMARKS
WISE*          PTCLDY    70  70 100 SW8       30.17F
JONESVILLE*      N/A     66  66 100 CALM      30.13F
ABINGDON*      MOCLDY    69  69 100 CALM      30.14F FOG
BRISTOL        CLOUDY    72  70  93 CALM      30.11F FOG
KNOXVILLE      CLEAR     75  70  84 W5        30.09F
OAK RIDGE      CLEAR     75  72  90 CALM      30.10F
CROSSVILLE     CLEAR     71  68  90 SW3       30.15F
NASHVILLE      CLEAR     77  73  87 S3        30.08F
$$

...KEY TO REMARKS...
VSB - VISIBILITY IN MILES
WCI - WIND CHILL INDEX
HX  - HEAT INDEX

$$


USA.gov is the U.S. government's official web portal to all federal, state and local government web resources and services.